Location: Maiden
(35.5760°N, 81.2120°W)
Time: 10:01:22
(UTC-04:00)

SR - Visible Passes

Search period start: 04 August 2020 00:00
Search period end: 14 August 2020 00:00
Orbit: 584 x 872 km, 66.7° (Epoch: 03 August)

Date Brightness Start Highest point End Pass type
(mag) Time Alt. Az. Time Alt. Az. Time Alt. Az.
04 Aug ? 01:29:28 14° NNW 01:29:28 14° NNW 01:30:28 10° N visible
05 Aug ? 00:40:36 17° N 00:40:36 17° N 00:41:42 10° N visible
05 Aug ? 23:51:39 14° NNE 23:51:39 14° NNE 23:52:19 10° NNE visible
07 Aug ? 00:41:57 16° NNW 00:41:57 16° NNW 00:43:28 10° N visible
07 Aug ? 23:52:45 23° N 23:52:45 23° N 23:54:38 10° N visible
08 Aug ? 23:03:18 26° NNE 23:03:18 26° NNE 23:05:12 10° NNE visible
09 Aug ? 22:13:28 22° ENE 22:13:28 22° ENE 22:15:17 10° NE visible
09 Aug ? 23:52:44 19° WNW 23:53:14 20° NW 23:56:27 10° N visible
10 Aug ? 21:22:40 15° E 21:22:40 15° E 21:24:29 10° ENE visible
10 Aug ? 23:01:49 31° WSW 23:03:22 41° WNW 23:07:33 10° NNE visible
11 Aug ? 22:08:57 10° SSW 22:13:40 83° ESE 22:18:05 10° NNE visible
12 Aug ? 21:19:48 10° S 21:24:04 34° ESE 21:28:06 10° NE visible
12 Aug ? 23:02:38 10° WSW 23:06:07 21° NW 23:09:26 10° N visible
13 Aug ? 06:04:15 10° NNE 06:06:16 13° NE 06:08:20 10° ENE visible
13 Aug ? 22:11:48 10° SW 22:16:15 45° WNW 22:20:28 10° NNE visible
